OPS 4682 DEB, 38456

Orbit data source: Space-Track

OPS 4682 DEB, 38456 is space debris in LEO originally from a launch on Sat, 03 Apr 1965 UTC launched from the Air Force Western Test Range (AFWTR). Debris objects in space refer to the collection of defunct objects orbiting the Earth. Examples of debris include non-operational satellites, rocket bodies, and fragments generated from explosions, collisions, or faulty payload assembly.

Loading next visibility...
Identifier
38456, 1965-027FM
Orbit
LEO
Country
Flag of USUS
Related business
Manufacturer
Unknown
Mission
Spacecraft
Bus & Motor
Unknown
Mass
Unknown
Launch date (UTC)
1965-04-03 (61 years ago)
Launch vehicle
Unknown
Launch site
Air Force Western Test Range (AFWTR)
Object type
Payload
Rocket body
Debris
Shape & HBR
Unknown shape, 0.1 m
Radar Cross Section
Small (<0.1 m²)

Expand to show TLE details & history
Last TLE update: 1 week ago

TLE from 1 week ago
0 OPS 4682 DEB
1 38456U 65027FM  26256.57201554 -.00000246  00000-0 -87364-3 0  9991
2 38456  90.2687   6.0084 0022912 140.8374 219.4410 12.97477239101397
Epoch: 2026-09-13T13:43Z
TLE epoch observation values (Epoch: 2026-09-13T13:43:42.142Z)
Latitude
-0.00003°
Longitude
167.51806°
Altitude
1,288.422 km
Speed
7.206 km/s
True Right ascension
00h 24m 02s
True Declination
0° 00' 00"
Sunlit
Object was in full shadow at epoch
Visualization orbit readout
Latitude
Unknown
Longitude
Unknown
Altitude
Unknown
Speed
Unknown
Apparent Right ascension
Unknown
Apparent Declination
Unknown
Sunlit
N/A
Visualization observer readout
Local Sidereal Time
21:45:59
Azimuth
Unknown
Elevation
Unknown
Doppler factor
Unknown
Orbital elements
Apogee altitude
1,286.639 km
Perigee altitude
1,251.596 km
Semi-major axis
7,647.255 km
Eccentricity
0.00229
Inclination
90.2687°
RAAN
6.0084°
Arg. of periapsis
140.8374°
True anomaly
219.27457°
Mean anomaly
219.441°
Eccentric anomaly
219.35775°
Mean motion
3.24552 °/min
Orbital period
110.92 mins
BSTAR
-0.00087364
Loading maneuver chart data...
Computing Atmospheric mass density...
Loading historical data...
Loading historical data...
Loading historical data...
Loading historical data...
Loading historical data...
Loading historical data...
Loading historical data...

Documentation

Showing up to 5 results
|